Regional Weather Roundup
Issued by NWS

Home | Current Version | Previous Version | Text Only | Print | Product List | Glossary On
Versions: 1 2 3 4 5 6 7 8 9 10 11 12 13 14 15 16 17 18 19 20 21 22 23 24 25 26 27 28 29 30 31 32 33 34 35 36 37 38 39 40 41 42 43 44 45 46 47 48 49 50
000
ASUS46 KSEW 241310
RWRWA

WASHINGTON REGIONAL WEATHER ROUNDUP
NATIONAL WEATHER SERVICE SEATTLE WA
500 AM PST FRI FEB 24 2017

NOTE:"FAIR" INDICATES FEW OR NO CLOUDS BELOW 12,000 FEET WITH NO
SIGNIFICANT WEATHER AND/OR OBSTRUCTIONS TO VISIBILITY.

WAZ507-509-555>559-241400-
SEATTLE, TACOMA, EVERETT, AND VICINITY

CITY           SKY/WX    TMP DP  RH WIND       PRES   REMARKS
EVERETT        CLOUDY    35  32  88 SE9       30.13S
BOEING FIELD   MOCLDY    33  32  96 SE7       30.15F
RENTON         CLOUDY    33  32  96 SE3       30.15F
SEATAC AIRPORT MOCLDY    34  30  85 S6        30.14S
JBLM-MCCHORD   CLOUDY    32  31  99 S7        30.14F
PUYALLUP         N/A     34  28  80 CALM      30.13F
BREMERTON      CLOUDY    32  32 100 S3        30.16R
JBLM-FT LEWIS  MOCLDY    30  30 100 SE6       30.14S
TACOMA NARROWS CLOUDY    35  32  88 S5        30.14F
$$

WAZ001-503-506-510-514-515-241400-
NORTH INTERIOR

CITY           SKY/WX    TMP DP  RH WIND       PRES   REMARKS
BELLINGHAM     LGT SNOW  33  32  96 CALM      30.13S FOG
FRIDAY HARBOR  CLOUDY    37  34  89 E9        30.13S
EASTSOUND      MOCLDY    37  34  87 S6        30.12R
PORT ANGELES   CLOUDY    33  27  78 SW6       30.10S
EDIZ HOOK      PTSUNNY   36  29  74 SW5       30.11S
PORT TOWNSEND  CLOUDY    34  34 100 SE6       30.13S
NAS WHIDBEY    MOCLDY    37  31  78 E9        30.17S
ARLINGTON      CLOUDY    34  27  75 N5        30.17S
BURLINGTON     CLOUDY    34  32  93 E6        30.15R
$$

WAZ020-022-039-040-504-511-512-241400-
SOUTHWEST INTERIOR

CITY           SKY/WX    TMP DP  RH WIND       PRES   REMARKS
SHELTON        CLOUDY    31  29  92 CALM      30.12S
OLYMPIA        CLOUDY    31  31 100 W6        30.15F
CHEHALIS       CLOUDY    36  34  93 S8        30.16S
KELSO          LGT RAIN  35  34  96 S6        30.20F
VANCOUVER      CLOUDY    36  35  96 VRB5      30.20F
SCAPPOOSE, OR  LGT SNOW  33  33 100 CALM      30.19F FOG
PORTLAND, OR   CLOUDY    36  33  89 SE3       30.21S
$$

WAZ021-516-517-241400-
WASHINGTON COAST

CITY           SKY/WX    TMP DP  RH WIND       PRES   REMARKS
FORKS          LGT SNOW  32  32 100 SE3       30.10S FOG
HOQUIAM        CLOUDY    36  35  96 E6        30.13F
ASTORIA, OR    CLOUDY    34  31  88 SE7       30.15F
$$

WAZ019-023-024-040-567>569-241400-
CASCADE MOUNTAINS AND COLUMBIA GORGE

CITY           SKY/WX    TMP DP  RH WIND       PRES   REMARKS
STAMPEDE PASS  NOT AVBL
TROUTDALE, OR  CLOUDY    34  32  92 CALM      30.21F
THE DALLES, OR PTCLDY    28  23  81 E8        30.20S
$$

WAZ026-027-041>044-520-521-241400-
EAST SLOPES

CITY           SKY/WX    TMP DP  RH WIND       PRES   REMARKS
OMAK           CLEAR     14   8  77 W5        30.13R
WENATCHEE      CLEAR     21  15  78 W8        30.11S
ELLENSBURG     CLEAR     15   9  76 CALM      30.09S
YAKIMA         PTCLDY    18  13  80 W7        30.14R
SUNNYSIDE ARPT SUNNY     21  20  96 CALM      30.15S
$$

WAZ028-034-035-241400-
COLUMBIA BASIN

CITY           SKY/WX    TMP DP  RH WIND       PRES   REMARKS
EPHRATA        CLEAR     21  11  65 N7        30.11R
MOSES LAKE     CLEAR     15  11  83 CALM      30.12S
PASCO          CLEAR     24  21  88 CALM      30.17S
HERMISTON, OR  CLEAR     27  23  85 S5        30.16S
$$

WAZ036>038-241400-
NORTHEAST WASHINGTON

CITY           SKY/WX    TMP DP  RH WIND       PRES   REMARKS
SPOKANE GEIGER PTCLDY    21  18  88 S6        30.07S
SPOKANE FELTS  CLEAR     21  19  92 NE5       30.11R
FAIRCHILD AFB  CLEAR     19  19  99 SE3       30.06R
COEURDALENE,ID PTCLDY    20  19  96 CALM      30.10R
DEER PARK      CLEAR      8   3  80 NW3       30.10R
$$

WAZ029>033-241400-
SOUTHEAST WASHINGTON

CITY           SKY/WX    TMP DP  RH WIND       PRES   REMARKS
PULLMAN        CLOUDY    24  20  84 NE3       30.10S
LEWISTON, ID   MOCLDY    26  21  81 CALM      30.15S
WALLA WALLA    CLOUDY    33  26  75 S8        30.15R
PENDLETON, OR  PTCLDY    29  22  75 S5        30.13S
$$



USA.gov is the U.S. government's official web portal to all federal, state and local government web resources and services.